Time,TemperatureF,DewpointF,PressureIn,WindDirection,WindDirectionDegrees,WindSpeedMPH,WindSpeedGustMPH,Humidity,HourlyPrecipIn,Conditions,Clouds,dailyrainin,SolarRadiationWatts/m^2,SoftwareType,DateUTC
2013-11-04 00:01:00,47.2,35.2,29.91,SSW,204,0.0,1.2,63,0.00,,,0.00,0.0,WeatherDisplay:10.37,2013-11-04 08:01:00,
2013-11-04 00:06:00,47.1,35.1,29.90,South,190,0.2,1.2,63,0.00,,,0.00,0.0,WeatherDisplay:10.37,2013-11-04 08:06:00,
2013-11-04 00:11:00,46.8,35.6,29.90,SSW,192,0.0,0.0,65,0.00,,,0.00,0.0,WeatherDisplay:10.37,2013-11-04 08:11:00,
2013-11-04 00:16:00,46.5,35.0,29.90,South,190,0.0,0.0,64,0.00,,,0.00,0.0,WeatherDisplay:10.37,2013-11-04 08:16:00,
2013-11-04 00:21:00,46.5,35.0,29.90,South,184,0.2,1.2,64,0.00,,,0.00,0.0,WeatherDisplay:10.37,2013-11-04 08:21:00,
2013-11-04 00:26:00,46.5,35.0,29.90,South,185,0.1,1.2,64,0.00,,,0.00,0.0,WeatherDisplay:10.37,2013-11-04 08:26:00,
2013-11-04 00:31:00,46.5,35.0,29.90,South,188,0.0,0.0,64,0.00,,,0.00,0.0,WeatherDisplay:10.37,2013-11-04 08:31:00,
2013-11-04 00:36:00,46.5,35.0,29.89,South,173,0.1,1.2,64,0.00,,,0.00,0.0,WeatherDisplay:10.37,2013-11-04 08:36:00,
2013-11-04 00:41:00,46.2,34.7,29.89,South,182,0.2,1.2,64,0.00,,,0.00,0.0,WeatherDisplay:10.37,2013-11-04 08:41:00,
2013-11-04 00:46:00,46.2,34.7,29.89,SSW,201,0.0,0.0,64,0.00,,,0.00,0.0,WeatherDisplay:10.37,2013-11-04 08:46:00,
2013-11-04 00:51:00,46.0,34.5,29.89,SSW,199,0.0,0.0,64,0.00,,,0.00,0.0,WeatherDisplay:10.37,2013-11-04 08:51:00,
2013-11-04 00:56:00,46.0,34.1,29.89,SSW,200,0.5,3.5,63,0.00,,,0.00,0.0,WeatherDisplay:10.37,2013-11-04 08:56:00,
2013-11-04 01:01:00,46.0,34.1,29.89,SSW,200,0.0,0.0,63,0.00,,,0.00,0.0,WeatherDisplay:10.37,2013-11-04 09:01:00,
2013-11-04 01:06:00,45.7,33.8,29.89,SSW,200,0.0,1.2,63,0.00,,,0.00,0.0,WeatherDisplay:10.37,2013-11-04 09:06:00,
2013-11-04 01:11:00,45.7,34.2,29.90,SSW,202,0.3,1.2,64,0.00,,,0.00,0.0,WeatherDisplay:10.37,2013-11-04 09:11:00,
2013-11-04 01:16:00,45.4,34.7,29.90,SSW,202,0.0,0.0,66,0.00,,,0.00,0.0,WeatherDisplay:10.37,2013-11-04 09:16:00,
2013-11-04 01:21:00,45.1,34.8,29.90,SSW,202,0.0,0.0,67,0.00,,,0.00,0.0,WeatherDisplay:10.37,2013-11-04 09:21:00,
2013-11-04 01:26:00,45.1,34.8,29.90,SSW,196,0.1,0.0,67,0.00,,,0.00,0.0,WeatherDisplay:10.37,2013-11-04 09:26:00,
2013-11-04 01:31:00,45.0,35.1,29.90,SW,215,1.3,3.5,68,0.00,,,0.00,0.0,WeatherDisplay:10.37,2013-11-04 09:31:00,
2013-11-04 01:36:00,45.1,35.5,29.90,South,182,1.2,4.6,69,0.00,,,0.00,0.0,WeatherDisplay:10.37,2013-11-04 09:36:00,
2013-11-04 01:41:00,45.0,35.8,29.90,South,173,1.1,2.3,70,0.00,,,0.00,0.0,WeatherDisplay:10.37,2013-11-04 09:41:00,
2013-11-04 01:46:00,45.3,35.7,29.90,SSW,199,0.3,1.2,69,0.00,,,0.00,0.0,WeatherDisplay:10.37,2013-11-04 09:46:00,
2013-11-04 01:51:00,45.3,35.7,29.90,SSW,201,0.1,1.0,69,0.00,,,0.00,0.0,WeatherDisplay:10.37,2013-11-04 09:51:00,
2013-11-04 01:56:00,45.3,35.0,29.90,SSW,201,0.5,2.3,67,0.00,,,0.00,0.0,WeatherDisplay:10.37,2013-11-04 09:56:00,
2013-11-04 02:01:00,45.3,34.6,29.90,SSW,203,0.0,0.0,66,0.00,,,0.00,0.0,WeatherDisplay:10.37,2013-11-04 10:01:00,
2013-11-04 02:06:00,45.3,34.6,29.90,SSW,196,1.7,4.6,66,0.00,,,0.00,0.0,WeatherDisplay:10.37,2013-11-04 10:06:00,
2013-11-04 02:11:00,45.3,34.6,29.90,South,172,0.3,1.2,66,0.00,,,0.00,0.0,WeatherDisplay:10.37,2013-11-04 10:11:00,
2013-11-04 02:16:00,45.3,34.6,29.90,SSW,206,0.0,2.3,66,0.00,,,0.00,0.0,WeatherDisplay:10.37,2013-11-04 10:16:00,
2013-11-04 02:21:00,45.3,34.6,29.90,SE,143,0.0,0.0,66,0.00,,,0.00,0.0,WeatherDisplay:10.37,2013-11-04 10:21:00,
2013-11-04 02:26:00,45.0,35.1,29.90,SE,143,0.0,0.0,68,0.00,,,0.00,0.0,WeatherDisplay:10.37,2013-11-04 10:26:00,
2013-11-04 02:31:00,44.5,34.6,29.90,SSE,154,0.0,2.3,68,0.00,,,0.00,0.0,WeatherDisplay:10.37,2013-11-04 10:31:00,
2013-11-04 02:36:00,44.4,34.5,29.90,SSE,158,0.1,0.0,68,0.00,,,0.00,0.0,WeatherDisplay:10.37,2013-11-04 10:36:00,
2013-11-04 02:41:00,44.5,34.2,29.90,South,170,0.0,0.0,67,0.00,,,0.00,0.0,WeatherDisplay:10.37,2013-11-04 10:41:00,
2013-11-04 02:46:00,44.8,34.5,29.90,SSW,192,0.2,2.3,67,0.00,,,0.00,0.0,WeatherDisplay:10.37,2013-11-04 10:46:00,
2013-11-04 02:51:00,45.1,34.4,29.90,South,180,0.3,1.2,66,0.00,,,0.00,0.0,WeatherDisplay:10.37,2013-11-04 10:51:00,
2013-11-04 02:56:00,45.3,34.6,29.90,South,182,0.3,3.5,66,0.00,,,0.00,0.0,WeatherDisplay:10.37,2013-11-04 10:56:00,
2013-11-04 03:01:00,45.1,34.0,29.90,SSW,198,0.0,2.3,65,0.00,,,0.00,0.0,WeatherDisplay:10.37,2013-11-04 11:01:00,
2013-11-04 03:06:00,45.1,34.0,29.90,SSW,192,0.0,0.0,65,0.00,,,0.00,0.0,WeatherDisplay:10.37,2013-11-04 11:06:00,
2013-11-04 03:11:00,45.0,33.9,29.90,SSW,196,0.0,0.0,65,0.00,,,0.00,0.0,WeatherDisplay:10.37,2013-11-04 11:11:00,
2013-11-04 03:16:00,45.0,33.9,29.90,South,191,0.0,2.0,65,0.00,,,0.00,0.0,WeatherDisplay:10.37,2013-11-04 11:16:00,
2013-11-04 03:21:00,44.8,34.5,29.90,SSW,202,0.2,0.0,67,0.00,,,0.00,0.0,WeatherDisplay:10.37,2013-11-04 11:21:00,
2013-11-04 03:26:00,44.5,34.2,29.90,SSW,199,0.0,1.0,67,0.00,,,0.00,0.0,WeatherDisplay:10.37,2013-11-04 11:26:00,
2013-11-04 03:31:00,44.4,34.1,29.90,South,188,0.0,0.0,67,0.00,,,0.00,0.0,WeatherDisplay:10.37,2013-11-04 11:31:00,
2013-11-04 03:36:00,44.1,33.8,29.90,SSW,205,1.3,3.5,67,0.00,,,0.00,0.0,WeatherDisplay:10.37,2013-11-04 11:36:00,
2013-11-04 03:41:00,44.2,32.8,29.90,SSW,213,0.0,1.2,64,0.00,,,0.00,0.0,WeatherDisplay:10.37,2013-11-04 11:41:00,
2013-11-04 03:46:00,44.2,32.8,29.90,SSW,195,0.0,1.0,64,0.00,,,0.00,0.0,WeatherDisplay:10.37,2013-11-04 11:46:00,
2013-11-04 03:51:00,44.4,32.6,29.90,South,186,0.0,0.0,63,0.00,,,0.00,0.0,WeatherDisplay:10.37,2013-11-04 11:51:00,
2013-11-04 03:56:00,44.4,33.0,29.90,South,189,0.0,1.2,64,0.00,,,0.00,0.0,WeatherDisplay:10.37,2013-11-04 11:56:00,
2013-11-04 04:01:00,44.2,32.8,29.90,South,191,0.0,0.0,64,0.00,,,0.00,0.0,WeatherDisplay:10.37,2013-11-04 12:01:00,
2013-11-04 04:06:00,44.2,32.8,29.89,South,190,0.0,1.2,64,0.00,,,0.00,0.0,WeatherDisplay:10.37,2013-11-04 12:06:00,
2013-11-04 04:11:00,44.7,32.9,29.90,South,180,0.1,0.0,63,0.00,,,0.00,0.0,WeatherDisplay:10.37,2013-11-04 12:11:00,
2013-11-04 04:16:00,45.7,32.2,29.90,SSE,164,0.5,1.2,59,0.00,,,0.00,0.0,WeatherDisplay:10.37,2013-11-04 12:16:00,
2013-11-04 04:21:00,46.5,31.6,29.90,South,180,0.9,2.3,56,0.00,,,0.00,0.0,WeatherDisplay:10.37,2013-11-04 12:21:00,
2013-11-04 04:26:00,47.2,31.4,29.90,South,178,0.1,0.0,54,0.00,,,0.00,0.0,WeatherDisplay:10.37,2013-11-04 12:26:00,
2013-11-04 04:31:00,47.2,31.4,29.90,South,176,0.0,0.0,54,0.00,,,0.00,0.0,WeatherDisplay:10.37,2013-11-04 12:31:00,
2013-11-04 04:36:00,46.9,31.6,29.91,South,180,0.0,0.0,55,0.00,,,0.00,0.0,WeatherDisplay:10.37,2013-11-04 12:36:00,
2013-11-04 04:41:00,46.3,31.0,29.91,SSE,166,0.5,1.2,55,0.00,,,0.00,0.0,WeatherDisplay:10.37,2013-11-04 12:41:00,
2013-11-04 04:46:00,45.7,31.8,29.90,South,174,0.1,1.2,58,0.00,,,0.00,0.0,WeatherDisplay:10.37,2013-11-04 12:46:00,
2013-11-04 04:51:00,45.4,31.5,29.91,South,188,0.0,0.0,58,0.00,,,0.00,0.0,WeatherDisplay:10.37,2013-11-04 12:51:00,
2013-11-04 04:56:00,45.1,31.2,29.91,South,190,0.1,0.0,58,0.00,,,0.00,0.0,WeatherDisplay:10.37,2013-11-04 12:56:00,
2013-11-04 05:01:00,45.3,31.4,29.91,South,191,0.2,1.2,58,0.00,,,0.00,0.0,WeatherDisplay:10.37,2013-11-04 13:01:00,
2013-11-04 05:06:00,45.9,31.1,29.92,South,186,0.0,0.0,56,0.00,,,0.00,0.0,WeatherDisplay:10.37,2013-11-04 13:06:00,
2013-11-04 05:11:00,45.9,31.1,29.92,South,183,0.0,0.0,56,0.00,,,0.00,0.0,WeatherDisplay:10.37,2013-11-04 13:11:00,
2013-11-04 05:16:00,45.7,30.9,29.92,South,182,0.0,1.2,56,0.00,,,0.00,0.0,WeatherDisplay:10.37,2013-11-04 13:16:00,
2013-11-04 05:21:00,45.4,31.0,29.93,South,182,0.0,1.2,57,0.00,,,0.00,0.0,WeatherDisplay:10.37,2013-11-04 13:21:00,
2013-11-04 05:26:00,45.0,30.7,29.93,South,186,0.1,0.0,57,0.00,,,0.00,0.0,WeatherDisplay:10.37,2013-11-04 13:26:00,
2013-11-04 05:31:00,44.7,31.2,29.93,South,188,0.6,3.5,59,0.00,,,0.00,0.0,WeatherDisplay:10.37,2013-11-04 13:31:00,
2013-11-04 05:36:00,44.2,31.6,29.93,South,188,0.0,0.0,61,0.00,,,0.00,0.0,WeatherDisplay:10.37,2013-11-04 13:36:00,
2013-11-04 05:41:00,43.8,31.6,29.93,SSW,194,0.5,1.2,62,0.00,,,0.00,0.0,WeatherDisplay:10.37,2013-11-04 13:41:00,
2013-11-04 05:46:00,43.4,32.0,29.93,SSW,193,0.0,0.0,64,0.00,,,0.00,0.0,WeatherDisplay:10.37,2013-11-04 13:46:00,
2013-11-04 05:51:00,43.1,31.7,29.93,SSW,193,0.0,0.0,64,0.00,,,0.00,0.0,WeatherDisplay:10.37,2013-11-04 13:51:00,
2013-11-04 05:56:00,42.9,31.6,29.93,SSW,193,0.0,0.0,64,0.00,,,0.00,0.0,WeatherDisplay:10.37,2013-11-04 13:56:00,
2013-11-04 06:01:00,42.5,31.6,29.93,SSW,193,0.0,0.0,65,0.00,,,0.00,0.0,WeatherDisplay:10.37,2013-11-04 14:01:00,
2013-11-04 06:06:00,42.2,31.6,29.93,SSW,193,0.0,0.0,66,0.00,,,0.00,0.0,WeatherDisplay:10.37,2013-11-04 14:06:00,
2013-11-04 06:11:00,41.8,31.3,29.93,SSW,193,0.0,0.0,66,0.00,,,0.00,0.0,WeatherDisplay:10.37,2013-11-04 14:11:00,
2013-11-04 06:16:00,41.5,31.0,29.93,SSW,193,0.0,0.0,66,0.00,,,0.00,0.0,WeatherDisplay:10.37,2013-11-04 14:16:00,
2013-11-04 06:21:00,41.3,31.2,29.93,SSW,193,0.0,1.2,67,0.00,,,0.00,0.0,WeatherDisplay:10.37,2013-11-04 14:21:00,
2013-11-04 06:26:00,41.5,31.0,29.93,South,190,0.1,1.2,66,0.00,,,0.00,0.0,WeatherDisplay:10.37,2013-11-04 14:26:00,
2013-11-04 06:31:00,41.9,31.0,29.94,South,180,0.0,0.0,65,0.00,,,0.00,0.0,WeatherDisplay:10.37,2013-11-04 14:31:00,
2013-11-04 06:36:00,42.3,31.0,29.94,South,180,0.0,1.2,64,0.00,,,0.00,0.0,WeatherDisplay:10.37,2013-11-04 14:36:00,
2013-11-04 06:41:00,42.5,31.2,29.94,South,175,0.0,0.0,64,0.00,,,0.00,0.0,WeatherDisplay:10.37,2013-11-04 14:41:00,
2013-11-04 06:46:00,42.8,31.1,29.94,South,173,0.5,1.2,63,0.00,,,0.00,0.0,WeatherDisplay:10.37,2013-11-04 14:46:00,
2013-11-04 06:51:00,43.1,31.0,29.95,South,175,0.1,0.0,62,0.00,,,0.00,0.0,WeatherDisplay:10.37,2013-11-04 14:51:00,
2013-11-04 06:56:00,43.5,30.9,29.95,South,175,0.0,0.0,61,0.00,,,0.00,0.0,WeatherDisplay:10.37,2013-11-04 14:56:00,
2013-11-04 07:01:00,44.1,31.1,29.95,South,175,0.0,0.0,60,0.00,,,0.00,0.0,WeatherDisplay:10.37,2013-11-04 15:01:00,
2013-11-04 07:06:00,44.8,31.8,29.96,South,184,0.0,0.0,60,0.00,,,0.00,0.0,WeatherDisplay:10.37,2013-11-04 15:06:00,
2013-11-04 07:11:00,45.6,31.7,29.96,South,188,0.0,0.0,58,0.00,,,0.00,0.0,WeatherDisplay:10.37,2013-11-04 15:11:00,
2013-11-04 07:16:00,46.3,30.1,29.96,South,188,0.0,0.0,53,0.00,,,0.00,0.0,WeatherDisplay:10.37,2013-11-04 15:16:00,
2013-11-04 07:21:00,47.2,30.5,29.96,South,188,0.3,1.2,52,0.00,,,0.00,0.0,WeatherDisplay:10.37,2013-11-04 15:21:00,
2013-11-04 07:26:00,48.4,31.6,29.96,South,188,0.2,0.0,52,0.00,,,0.00,0.0,WeatherDisplay:10.37,2013-11-04 15:26:00,
2013-11-04 07:31:00,49.3,31.9,29.97,South,188,0.0,0.0,51,0.00,,,0.00,0.0,WeatherDisplay:10.37,2013-11-04 15:31:00,
2013-11-04 07:36:00,50.0,32.6,29.97,South,188,0.0,0.0,51,0.00,,,0.00,0.0,WeatherDisplay:10.37,2013-11-04 15:36:00,
2013-11-04 07:41:00,50.5,31.5,29.97,South,188,0.0,0.0,48,0.00,,,0.00,0.0,WeatherDisplay:10.37,2013-11-04 15:41:00,
2013-11-04 07:46:00,51.1,31.6,29.97,South,188,0.0,0.0,47,0.00,,,0.00,0.0,WeatherDisplay:10.37,2013-11-04 15:46:00,
2013-11-04 07:51:00,51.5,31.9,29.97,South,188,0.0,0.0,47,0.00,,,0.00,0.0,WeatherDisplay:10.37,2013-11-04 15:51:00,
2013-11-04 07:56:00,52.7,32.5,29.96,South,188,0.0,1.2,46,0.00,,,0.00,0.0,WeatherDisplay:10.37,2013-11-04 15:56:00,
2013-11-04 08:01:00,53.3,31.9,29.97,South,188,0.0,0.0,44,0.00,OVC,,0.00,0.0,WeatherDisplay:10.37,2013-11-04 16:01:00,
2013-11-04 08:06:00,53.6,31.0,29.97,South,190,0.0,0.0,42,0.00,OVC,,0.00,0.0,WeatherDisplay:10.37,2013-11-04 16:06:00,
2013-11-04 08:11:00,54.2,30.4,29.97,SSW,196,0.1,2.3,40,0.00,OVC,,0.00,0.0,WeatherDisplay:10.37,2013-11-04 16:11:00,
2013-11-04 08:16:00,54.6,32.5,29.97,SSW,201,0.0,0.0,43,0.00,OVC,,0.00,0.0,WeatherDisplay:10.37,2013-11-04 16:16:00,
2013-11-04 08:21:00,54.6,32.5,29.97,SSW,200,0.0,0.0,43,0.00,OVC,,0.00,0.0,WeatherDisplay:10.37,2013-11-04 16:21:00,
2013-11-04 08:26:00,52.6,37.3,29.97,WNW,291,0.0,0.0,56,0.00,CLR,,0.00,302.0,WeatherDisplay:10.37,2013-11-04 16:26:00,
2013-11-04 08:31:00,53.2,37.4,29.98,WNW,292,0.4,2.3,55,0.00,CLR,,0.00,318.0,WeatherDisplay:10.37,2013-11-04 16:31:00,
2013-11-04 08:36:00,53.4,36.7,29.98,WNW,292,2.1,3.5,53,0.00,CLR,,0.00,330.0,WeatherDisplay:10.37,2013-11-04 16:36:00,
2013-11-04 08:41:00,53.7,37.4,29.98,WNW,292,1.0,2.3,54,0.00,CLR,,0.00,345.0,WeatherDisplay:10.37,2013-11-04 16:41:00,
2013-11-04 08:46:00,53.7,36.5,29.98,WNW,292,3.2,4.6,52,0.00,CLR,,0.00,359.0,WeatherDisplay:10.37,2013-11-04 16:46:00,
2013-11-04 08:51:00,54.4,37.1,29.98,WNW,292,1.9,3.5,52,0.00,CLR,,0.00,378.0,WeatherDisplay:10.37,2013-11-04 16:51:00,
2013-11-04 08:56:00,55.7,37.8,29.98,WNW,292,0.8,2.3,51,0.00,CLR,,0.00,392.0,WeatherDisplay:10.37,2013-11-04 16:56:00,
2013-11-04 09:01:00,56.0,38.1,29.99,WNW,292,0.3,3.5,51,0.00,CLR,,0.00,403.0,WeatherDisplay:10.37,2013-11-04 17:01:00,
2013-11-04 09:06:00,57.0,38.5,29.99,WNW,292,0.7,1.2,50,0.00,CLR,,0.00,417.0,WeatherDisplay:10.37,2013-11-04 17:06:00,
2013-11-04 09:11:00,58.0,37.3,29.99,WNW,292,2.1,3.5,46,0.00,CLR,,0.00,429.0,WeatherDisplay:10.37,2013-11-04 17:11:00,
2013-11-04 09:16:00,58.8,36.3,29.99,NW,316,3.4,3.5,43,0.00,CLR,,0.00,443.0,WeatherDisplay:10.37,2013-11-04 17:16:00,
2013-11-04 09:21:00,59.2,35.5,29.99,NNW,333,2.2,3.5,41,0.00,CLR,,0.00,455.0,WeatherDisplay:10.37,2013-11-04 17:21:00,
2013-11-04 09:26:00,59.5,35.1,29.99,North,355,3.8,6.9,40,0.00,CLR,,0.00,468.0,WeatherDisplay:10.37,2013-11-04 17:26:00,
2013-11-04 09:31:00,59.6,35.2,29.99,NNE,15,3.8,6.9,40,0.00,CLR,,0.00,480.0,WeatherDisplay:10.37,2013-11-04 17:31:00,
2013-11-04 09:36:00,59.9,34.9,29.99,NNE,16,3.9,4.6,39,0.00,CLR,,0.00,492.0,WeatherDisplay:10.37,2013-11-04 17:36:00,
2013-11-04 09:41:00,60.2,34.5,29.99,NNE,17,2.0,3.5,38,0.00,CLR,,0.00,504.0,WeatherDisplay:10.37,2013-11-04 17:41:00,
2013-11-04 09:46:00,60.8,34.3,29.99,NNE,17,1.7,3.5,37,0.00,CLR,,0.00,513.0,WeatherDisplay:10.37,2013-11-04 17:46:00,
2013-11-04 09:51:00,61.1,33.9,29.99,NNE,17,0.4,3.5,36,0.00,CLR,,0.00,524.0,WeatherDisplay:10.37,2013-11-04 17:51:00,
2013-11-04 09:56:00,61.4,33.5,29.99,NNE,17,3.4,3.5,35,0.00,CLR,,0.00,534.0,WeatherDisplay:10.37,2013-11-04 17:56:00,
2013-11-04 10:02:00,61.7,33.7,29.99,NNE,17,2.2,3.5,35,0.00,CLR,,0.00,543.0,WeatherDisplay:10.37,2013-11-04 18:02:00,
2013-11-04 10:07:00,62.0,33.3,29.99,NNE,17,2.0,3.5,34,0.00,CLR,,0.00,555.0,WeatherDisplay:10.37,2013-11-04 18:07:00,
2013-11-04 10:12:00,62.3,34.3,29.99,NNE,17,0.9,3.0,35,0.00,CLR,,0.00,563.0,WeatherDisplay:10.37,2013-11-04 18:12:00,
2013-11-04 10:17:00,63.0,34.2,29.99,NNE,17,0.9,2.3,34,0.00,CLR,,0.00,571.0,WeatherDisplay:10.37,2013-11-04 18:17:00,
2013-11-04 10:22:00,63.4,35.2,29.98,NNE,17,1.5,3.5,35,0.00,CLR,,0.00,578.0,WeatherDisplay:10.37,2013-11-04 18:22:00,
2013-11-04 10:27:00,63.2,35.1,29.98,NNE,17,0.7,3.5,35,0.00,CLR,,0.00,585.0,WeatherDisplay:10.37,2013-11-04 18:27:00,
2013-11-04 10:32:00,62.9,34.1,29.98,NNE,17,1.4,3.5,34,0.00,CLR,,0.00,594.0,WeatherDisplay:10.37,2013-11-04 18:32:00,
2013-11-04 10:37:00,63.3,33.7,29.98,NNE,19,0.5,3.5,33,0.00,CLR,,0.00,599.0,WeatherDisplay:10.37,2013-11-04 18:37:00,
2013-11-04 10:42:00,63.8,34.1,29.97,NNE,19,0.1,2.3,33,0.00,CLR,,0.00,610.0,WeatherDisplay:10.37,2013-11-04 18:42:00,
2013-11-04 10:47:00,64.4,34.6,29.97,NNE,19,0.1,1.2,33,0.00,CLR,,0.00,615.0,WeatherDisplay:10.37,2013-11-04 18:47:00,
2013-11-04 10:52:00,64.4,34.6,29.97,NNE,19,1.3,3.5,33,0.00,CLR,,0.00,610.0,WeatherDisplay:10.37,2013-11-04 18:52:00,
2013-11-04 10:57:00,64.6,34.1,29.97,NW,319,2.6,3.5,32,0.00,CLR,,0.00,619.0,WeatherDisplay:10.37,2013-11-04 18:57:00,
2013-11-04 11:02:00,64.3,33.0,29.97,WNW,301,2.2,3.5,31,0.00,CLR,,0.00,613.0,WeatherDisplay:10.37,2013-11-04 19:02:00,
2013-11-04 11:07:00,64.2,33.7,29.97,NW,318,1.2,3.5,32,0.00,CLR,,0.00,619.0,WeatherDisplay:10.37,2013-11-04 19:07:00,
2013-11-04 11:12:00,64.7,33.3,29.97,NNE,14,5.5,6.9,31,0.00,CLR,,0.00,619.0,WeatherDisplay:10.37,2013-11-04 19:12:00,
2013-11-04 11:17:00,65.3,34.7,29.96,NNE,15,2.2,4.6,32,0.00,CLR,,0.00,628.0,WeatherDisplay:10.37,2013-11-04 19:17:00,
2013-11-04 11:22:00,65.4,34.0,29.96,NNE,15,0.3,0.0,31,0.00,CLR,,0.00,617.0,WeatherDisplay:10.37,2013-11-04 19:22:00,
2013-11-04 11:27:00,66.1,34.6,29.96,NNE,15,2.5,3.5,31,0.00,CLR,,0.00,619.0,WeatherDisplay:10.37,2013-11-04 19:27:00,
2013-11-04 11:32:00,66.0,33.7,29.96,NNW,348,1.3,3.5,30,0.00,CLR,,0.00,621.0,WeatherDisplay:10.37,2013-11-04 19:32:00,
2013-11-04 11:37:00,66.1,34.6,29.96,North,360,1.4,3.5,31,0.00,CLR,,0.00,624.0,WeatherDisplay:10.37,2013-11-04 19:37:00,
2013-11-04 11:42:00,66.6,34.2,29.96,North,360,0.2,2.3,30,0.00,CLR,,0.00,622.0,WeatherDisplay:10.37,2013-11-04 19:42:00,
2013-11-04 11:47:00,67.4,34.9,29.96,North,5,4.3,5.8,30,0.00,CLR,,0.00,626.0,WeatherDisplay:10.37,2013-11-04 19:47:00,
2013-11-04 11:52:00,67.3,34.8,29.96,NNE,18,3.8,4.6,30,0.00,CLR,,0.00,628.0,WeatherDisplay:10.37,2013-11-04 19:52:00,
2013-11-04 11:57:00,67.6,34.2,29.95,NNW,348,2.8,4.6,29,0.00,CLR,,0.00,631.0,WeatherDisplay:10.37,2013-11-04 19:57:00,
2013-11-04 12:02:00,67.0,34.5,29.96,NW,311,0.1,1.2,30,0.00,CLR,,0.00,636.0,WeatherDisplay:10.37,2013-11-04 20:02:00,
2013-11-04 12:07:00,67.8,34.4,29.95,NW,319,1.7,3.5,29,0.00,CLR,,0.00,631.0,WeatherDisplay:10.37,2013-11-04 20:07:00,
2013-11-04 12:12:00,68.2,33.8,29.94,NNE,23,6.0,6.9,28,0.00,CLR,,0.00,631.0,WeatherDisplay:10.37,2013-11-04 20:12:00,
2013-11-04 12:17:00,68.3,34.8,29.94,NNE,23,3.4,6.0,29,0.00,CLR,,0.00,631.0,WeatherDisplay:10.37,2013-11-04 20:17:00,
2013-11-04 12:22:00,68.3,34.8,29.94,NNE,25,4.2,4.2,29,0.00,CLR,,0.00,631.0,WeatherDisplay:10.37,2013-11-04 20:22:00,
2013-11-04 12:27:00,68.0,34.5,29.94,NNE,26,7.4,11.5,29,0.00,CLR,,0.00,629.0,WeatherDisplay:10.37,2013-11-04 20:27:00,
2013-11-04 12:32:00,68.7,35.1,29.94,NNE,30,0.4,2.0,29,0.00,CLR,,0.00,617.0,WeatherDisplay:10.37,2013-11-04 20:32:00,
2013-11-04 12:37:00,68.8,35.2,29.94,NNE,28,2.8,3.5,29,0.00,CLR,,0.00,626.0,WeatherDisplay:10.37,2013-11-04 20:37:00,
2013-11-04 12:42:00,69.1,34.6,29.94,NNW,337,4.3,8.1,28,0.00,CLR,,0.00,617.0,WeatherDisplay:10.37,2013-11-04 20:42:00,
2013-11-04 12:47:00,68.9,34.4,29.93,NNE,31,3.3,5.8,28,0.00,CLR,,0.00,613.0,WeatherDisplay:10.37,2013-11-04 20:47:00,
2013-11-04 12:52:00,69.3,34.8,29.93,NNE,28,3.9,8.0,28,0.00,CLR,,0.00,613.0,WeatherDisplay:10.37,2013-11-04 20:52:00,
2013-11-04 12:57:00,69.3,35.7,29.93,ENE,58,2.1,6.9,29,0.00,CLR,,0.00,608.0,WeatherDisplay:10.37,2013-11-04 20:57:00,
2013-11-04 13:02:00,69.3,34.8,29.93,NNE,17,2.5,4.6,28,0.00,CLR,,0.00,601.0,WeatherDisplay:10.37,2013-11-04 21:02:00,
2013-11-04 13:07:00,69.6,35.0,29.93,West,273,1.2,9.2,28,0.00,CLR,,0.00,599.0,WeatherDisplay:10.37,2013-11-04 21:07:00,
2013-11-04 13:12:00,69.8,34.3,29.93,WNW,288,2.5,4.6,27,0.00,CLR,,0.00,596.0,WeatherDisplay:10.37,2013-11-04 21:12:00,
2013-11-04 13:17:00,69.5,34.9,29.92,NNE,24,1.9,4.6,28,0.00,CLR,,0.00,591.0,WeatherDisplay:10.37,2013-11-04 21:17:00,
2013-11-04 13:22:00,69.8,35.2,29.92,ENE,64,1.1,3.0,28,0.00,CLR,,0.00,587.0,WeatherDisplay:10.37,2013-11-04 21:22:00,
2013-11-04 13:27:00,69.8,35.2,29.92,NE,37,5.2,6.9,28,0.00,CLR,,0.00,575.0,WeatherDisplay:10.37,2013-11-04 21:27:00,
2013-11-04 13:32:00,69.7,35.1,29.92,WNW,290,2.2,8.1,28,0.00,CLR,,0.00,571.0,WeatherDisplay:10.37,2013-11-04 21:32:00,
2013-11-04 13:41:00,70.1,35.5,29.91,NNE,27,0.8,2.3,28,0.00,CLR,,0.00,555.0,WeatherDisplay:10.37,2013-11-04 21:41:00,
2013-11-04 13:46:00,70.4,35.7,29.91,North,5,1.7,3.5,28,0.00,CLR,,0.00,548.0,WeatherDisplay:10.37,2013-11-04 21:46:00,
2013-11-04 13:51:00,70.8,34.2,29.91,NNW,348,1.6,4.6,26,0.00,CLR,,0.00,540.0,WeatherDisplay:10.37,2013-11-04 21:51:00,
2013-11-04 13:56:00,71.0,33.4,29.91,NE,55,5.5,8.1,25,0.00,CLR,,0.00,533.0,WeatherDisplay:10.37,2013-11-04 21:56:00,
2013-11-04 14:01:00,70.5,35.8,29.92,North,360,0.4,4.6,28,0.00,CLR,,0.00,522.0,WeatherDisplay:10.37,2013-11-04 22:01:00,
2013-11-04 14:06:00,70.6,32.0,29.91,NNE,22,6.1,11.5,24,0.00,CLR,,0.00,513.0,WeatherDisplay:10.37,2013-11-04 22:06:00,
2013-11-04 14:11:00,70.8,32.2,29.91,North,10,6.6,8.1,24,0.00,CLR,,0.00,503.0,WeatherDisplay:10.37,2013-11-04 22:11:00,
2013-11-04 14:16:00,71.1,31.4,29.91,NE,41,6.8,9.0,23,0.00,CLR,,0.00,492.0,WeatherDisplay:10.37,2013-11-04 22:16:00,
2013-11-04 14:21:00,71.1,31.4,29.91,NE,36,4.5,10.4,23,0.00,CLR,,0.00,480.0,WeatherDisplay:10.37,2013-11-04 22:21:00,
2013-11-04 14:26:00,71.3,31.6,29.91,NE,46,4.6,9.2,23,0.00,CLR,,0.00,468.0,WeatherDisplay:10.37,2013-11-04 22:26:00,
2013-11-04 14:31:00,71.3,31.6,29.91,NE,44,4.5,8.1,23,0.00,CLR,,0.00,455.0,WeatherDisplay:10.37,2013-11-04 22:31:00,
2013-11-04 14:36:00,70.9,31.2,29.91,NE,44,3.4,9.0,23,0.00,CLR,,0.00,443.0,WeatherDisplay:10.37,2013-11-04 22:36:00,
2013-11-04 14:41:00,70.8,31.1,29.91,NNE,21,7.2,10.4,23,0.00,CLR,,0.00,431.0,WeatherDisplay:10.37,2013-11-04 22:41:00,
2013-11-04 14:46:00,70.4,31.9,29.91,North,360,4.7,10.4,24,0.00,CLR,,0.00,415.0,WeatherDisplay:10.37,2013-11-04 22:46:00,
2013-11-04 14:51:00,70.3,30.7,29.91,NNE,24,4.6,9.2,23,0.00,CLR,,0.00,376.0,WeatherDisplay:10.37,2013-11-04 22:51:00,
2013-11-04 14:56:00,70.2,30.6,29.91,NNE,25,7.4,9.2,23,0.00,BKN,,0.00,49.0,WeatherDisplay:10.37,2013-11-04 22:56:00,
2013-11-04 15:01:00,70.0,30.5,29.91,NE,34,5.8,12.7,23,0.00,BKN,,0.00,33.0,WeatherDisplay:10.37,2013-11-04 23:01:00,
2013-11-04 15:06:00,69.9,31.4,29.91,NNE,22,3.2,5.8,24,0.00,BKN,,0.00,33.0,WeatherDisplay:10.37,2013-11-04 23:06:00,
2013-11-04 15:11:00,69.8,30.3,29.91,North,9,5.3,9.2,23,0.00,BKN,,0.00,30.0,WeatherDisplay:10.37,2013-11-04 23:11:00,
2013-11-04 15:16:00,69.8,30.3,29.91,NNE,26,6.5,11.5,23,0.00,BKN,,0.00,32.0,WeatherDisplay:10.37,2013-11-04 23:16:00,
2013-11-04 15:21:00,69.8,30.3,29.91,NNE,32,5.6,9.2,23,0.00,BKN,,0.00,32.0,WeatherDisplay:10.37,2013-11-04 23:21:00,
2013-11-04 15:26:00,69.8,31.4,29.91,NNE,19,5.3,9.2,24,0.00,BKN,,0.00,39.0,WeatherDisplay:10.37,2013-11-04 23:26:00,
2013-11-04 15:31:00,69.6,31.2,29.91,WNW,282,0.8,3.5,24,0.00,BKN,,0.00,42.0,WeatherDisplay:10.37,2013-11-04 23:31:00,
2013-11-04 15:36:00,69.3,34.8,29.92,WNW,290,0.0,0.0,28,0.00,BKN,,0.00,56.0,WeatherDisplay:10.37,2013-11-04 23:36:00,
2013-11-04 15:41:00,68.0,36.2,29.92,West,259,3.7,6.9,31,0.00,BKN,,0.00,26.0,WeatherDisplay:10.37,2013-11-04 23:41:00,
2013-11-04 15:46:00,67.3,36.4,29.92,West,277,6.7,6.9,32,0.00,BKN,,0.00,58.0,WeatherDisplay:10.37,2013-11-04 23:46:00,
2013-11-04 15:51:00,67.3,36.4,29.92,West,277,7.0,7.0,32,0.00,BKN,,0.00,58.0,WeatherDisplay:10.37,2013-11-04 23:51:00,
2013-11-04 15:56:00,65.9,35.2,29.92,SSW,196,0.0,1.2,32,0.00,OVC,,0.00,0.0,WeatherDisplay:10.37,2013-11-04 23:56:00,
2013-11-04 16:01:00,65.9,35.2,29.92,SSW,196,0.0,0.0,32,0.00,,,0.00,0.0,WeatherDisplay:10.37,2013-11-05 00:01:00,
2013-11-04 16:06:00,65.1,34.5,29.92,WSW,254,3.5,4.6,32,0.00,,,0.00,0.0,WeatherDisplay:10.37,2013-11-05 00:06:00,
2013-11-04 16:11:00,64.9,28.2,29.93,South,180,0.6,1.2,25,0.00,,,0.00,0.0,WeatherDisplay:10.37,2013-11-05 00:11:00,
2013-11-04 16:16:00,64.8,29.1,29.93,SE,131,0.0,0.0,26,0.00,,,0.00,0.0,WeatherDisplay:10.37,2013-11-05 00:16:00,
2013-11-04 16:21:00,64.8,29.1,29.93,SE,131,0.0,0.0,26,0.00,,,0.00,0.0,WeatherDisplay:10.37,2013-11-05 00:21:00,
2013-11-04 16:26:00,64.8,29.1,29.93,North,6,0.0,0.0,26,0.00,,,0.00,0.0,WeatherDisplay:10.37,2013-11-05 00:26:00,
2013-11-04 16:31:00,64.8,29.1,29.93,North,0,0.0,0.0,26,0.00,,,0.00,0.0,WeatherDisplay:10.37,2013-11-05 00:31:00,
2013-11-04 16:36:00,64.8,29.1,29.93,North,0,0.0,0.0,26,0.00,,,0.00,0.0,WeatherDisplay:10.37,2013-11-05 00:36:00,
2013-11-04 16:41:00,64.8,29.1,29.93,North,0,0.0,0.0,26,0.00,,,0.00,0.0,WeatherDisplay:10.37,2013-11-05 00:41:00,
2013-11-04 16:46:00,64.8,29.1,29.93,North,0,0.0,0.0,26,0.00,,,0.00,0.0,WeatherDisplay:10.37,2013-11-05 00:46:00,
2013-11-04 16:51:00,64.8,29.1,29.94,North,0,0.0,0.0,26,0.00,,,0.00,0.0,WeatherDisplay:10.37,2013-11-05 00:51:00,
2013-11-04 16:56:00,64.8,29.1,29.94,North,0,0.0,0.0,26,0.00,,,0.00,0.0,WeatherDisplay:10.37,2013-11-05 00:56:00,
2013-11-04 17:01:00,64.8,29.1,29.94,North,0,0.0,0.0,26,0.00,,,0.00,0.0,WeatherDisplay:10.37,2013-11-05 01:01:00,
2013-11-04 17:06:00,64.8,29.1,29.94,North,0,0.0,0.0,26,0.00,,,0.00,0.0,WeatherDisplay:10.37,2013-11-05 01:06:00,
2013-11-04 17:11:00,64.8,29.1,29.95,North,0,0.0,0.0,26,0.00,,,0.00,0.0,WeatherDisplay:10.37,2013-11-05 01:11:00,
2013-11-04 17:16:00,64.8,29.1,29.95,North,0,0.0,0.0,26,0.00,,,0.00,0.0,WeatherDisplay:10.37,2013-11-05 01:16:00,
2013-11-04 17:21:00,64.8,29.1,29.96,North,0,0.0,0.0,26,0.00,,,0.00,0.0,WeatherDisplay:10.37,2013-11-05 01:21:00,
2013-11-04 17:26:00,64.8,29.1,29.96,North,0,0.0,0.0,26,0.00,,,0.00,0.0,WeatherDisplay:10.37,2013-11-05 01:26:00,
2013-11-04 17:31:00,64.8,29.1,29.96,North,0,0.0,0.0,26,0.00,,,0.00,0.0,WeatherDisplay:10.37,2013-11-05 01:31:00,
2013-11-04 17:36:00,64.8,29.1,29.96,North,0,0.0,0.0,26,0.00,,,0.00,0.0,WeatherDisplay:10.37,2013-11-05 01:36:00,
2013-11-04 17:41:00,64.8,29.1,29.96,North,0,0.0,0.0,26,0.00,,,0.00,0.0,WeatherDisplay:10.37,2013-11-05 01:41:00,
2013-11-04 17:46:00,64.8,29.1,29.96,North,0,0.0,0.0,26,0.00,,,0.00,0.0,WeatherDisplay:10.37,2013-11-05 01:46:00,
2013-11-04 17:51:00,64.8,29.1,29.96,North,0,0.0,0.0,26,0.00,,,0.00,0.0,WeatherDisplay:10.37,2013-11-05 01:51:00,
2013-11-04 17:56:00,64.8,29.1,29.97,North,0,0.0,0.0,26,0.00,,,0.00,0.0,WeatherDisplay:10.37,2013-11-05 01:56:00,
2013-11-04 18:01:00,64.8,29.1,29.97,North,0,0.0,0.0,26,0.00,,,0.00,0.0,WeatherDisplay:10.37,2013-11-05 02:01:00,
2013-11-04 18:06:00,64.8,29.1,29.97,North,0,0.0,0.0,26,0.00,,,0.00,0.0,WeatherDisplay:10.37,2013-11-05 02:06:00,
2013-11-04 18:11:00,64.8,29.1,29.97,North,0,0.0,0.0,26,0.00,,,0.00,0.0,WeatherDisplay:10.37,2013-11-05 02:11:00,
2013-11-04 18:16:00,64.8,29.1,29.97,North,0,0.0,0.0,26,0.00,,,0.00,0.0,WeatherDisplay:10.37,2013-11-05 02:16:00,
2013-11-04 18:21:00,64.8,29.1,29.97,North,0,0.0,0.0,26,0.00,,,0.00,0.0,WeatherDisplay:10.37,2013-11-05 02:21:00,
2013-11-04 18:26:00,64.8,29.1,29.97,North,0,0.0,0.0,26,0.00,,,0.00,0.0,WeatherDisplay:10.37,2013-11-05 02:26:00,
2013-11-04 18:31:00,64.8,29.1,29.97,North,0,0.0,0.0,26,0.00,,,0.00,0.0,WeatherDisplay:10.37,2013-11-05 02:31:00,
2013-11-04 18:36:00,64.8,29.1,29.97,North,0,0.0,0.0,26,0.00,,,0.00,0.0,WeatherDisplay:10.37,2013-11-05 02:36:00,
2013-11-04 18:41:00,59.6,24.6,29.97,South,186,1.9,3.5,26,0.00,,,0.00,0.0,WeatherDisplay:10.37,2013-11-05 02:41:00,
2013-11-04 18:46:00,59.6,28.9,29.98,SSE,148,0.7,2.3,31,0.00,,,0.00,0.0,WeatherDisplay:10.37,2013-11-05 02:46:00,
2013-11-04 18:51:00,59.3,30.2,29.98,SSE,153,0.0,1.2,33,0.00,,,0.00,0.0,WeatherDisplay:10.37,2013-11-05 02:51:00,
2013-11-04 18:56:00,58.4,30.8,29.98,SW,221,0.0,1.2,35,0.00,,,0.00,0.0,WeatherDisplay:10.37,2013-11-05 02:56:00,
2013-11-04 19:01:00,57.8,29.6,29.98,SW,221,0.1,1.2,34,0.00,,,0.00,0.0,WeatherDisplay:10.37,2013-11-05 03:01:00,
2013-11-04 19:06:00,57.6,29.4,29.97,SW,214,0.7,2.3,34,0.00,,,0.00,0.0,WeatherDisplay:10.37,2013-11-05 03:06:00,
2013-11-04 19:11:00,57.6,30.1,29.98,SSW,213,0.5,1.2,35,0.00,,,0.00,0.0,WeatherDisplay:10.37,2013-11-05 03:11:00,
2013-11-04 19:16:00,57.9,30.4,29.98,SSW,209,0.0,2.3,35,0.00,,,0.00,0.0,WeatherDisplay:10.37,2013-11-05 03:16:00,
2013-11-04 19:21:00,58.1,29.8,29.97,West,273,2.6,2.6,34,0.00,,,0.00,0.0,WeatherDisplay:10.37,2013-11-05 03:21:00,
2013-11-04 19:26:00,58.4,28.6,29.97,SW,228,0.9,2.3,32,0.00,,,0.00,0.0,WeatherDisplay:10.37,2013-11-05 03:26:00,
2013-11-04 19:31:00,58.7,28.1,29.98,SW,217,0.7,3.5,31,0.00,,,0.00,0.0,WeatherDisplay:10.37,2013-11-05 03:31:00,
2013-11-04 19:36:00,59.0,28.4,29.98,SSW,200,0.1,1.2,31,0.00,,,0.00,0.0,WeatherDisplay:10.37,2013-11-05 03:36:00,
2013-11-04 19:41:00,59.6,28.1,29.98,SW,232,0.9,0.0,30,0.00,,,0.00,0.0,WeatherDisplay:10.37,2013-11-05 03:41:00,
2013-11-04 19:46:00,59.6,28.1,29.98,SSE,163,1.3,3.5,30,0.00,,,0.00,0.0,WeatherDisplay:10.37,2013-11-05 03:46:00,
2013-11-04 19:51:00,59.8,28.3,29.98,SW,221,0.0,0.0,30,0.00,,,0.00,0.0,WeatherDisplay:10.37,2013-11-05 03:51:00,
2013-11-04 19:56:00,59.8,28.3,29.98,West,259,1.0,2.0,30,0.00,,,0.00,0.0,WeatherDisplay:10.37,2013-11-05 03:56:00,
2013-11-04 20:01:00,59.8,29.1,29.98,SW,228,1.0,2.3,31,0.00,,,0.00,0.0,WeatherDisplay:10.37,2013-11-05 04:01:00,
2013-11-04 20:06:00,59.6,28.9,29.99,South,186,0.0,2.3,31,0.00,,,0.00,0.0,WeatherDisplay:10.37,2013-11-05 04:06:00,
2013-11-04 20:11:00,59.3,28.6,29.99,SW,215,0.6,2.3,31,0.00,,,0.00,0.0,WeatherDisplay:10.37,2013-11-05 04:11:00,
2013-11-04 20:17:00,59.0,29.2,29.99,SSW,202,0.4,2.3,32,0.00,,,0.00,0.0,WeatherDisplay:10.37,2013-11-05 04:17:00,
2013-11-04 20:22:00,58.9,29.1,29.99,SW,216,0.7,2.3,32,0.00,,,0.00,0.0,WeatherDisplay:10.37,2013-11-05 04:22:00,
2013-11-04 20:27:00,58.5,29.5,29.99,SE,143,0.7,2.3,33,0.00,,,0.00,0.0,WeatherDisplay:10.37,2013-11-05 04:27:00,
2013-11-04 20:32:00,58.2,29.9,30.00,South,173,0.2,1.2,34,0.00,,,0.00,0.0,WeatherDisplay:10.37,2013-11-05 04:32:00,
2013-11-04 20:37:00,57.8,29.6,30.00,South,178,0.0,1.2,34,0.00,,,0.00,0.0,WeatherDisplay:10.37,2013-11-05 04:37:00,
2013-11-04 20:42:00,57.6,30.1,30.00,SSW,205,0.0,0.0,35,0.00,,,0.00,0.0,WeatherDisplay:10.37,2013-11-05 04:42:00,
2013-11-04 20:47:00,57.3,30.5,30.00,SSW,206,0.0,1.2,36,0.00,,,0.00,0.0,WeatherDisplay:10.37,2013-11-05 04:47:00,
2013-11-04 20:52:00,57.0,29.6,30.00,SSW,213,0.2,2.3,35,0.00,,,0.00,0.0,WeatherDisplay:10.37,2013-11-05 04:52:00,
2013-11-04 20:57:00,56.9,30.9,30.00,SSW,207,0.1,2.3,37,0.00,,,0.00,0.0,WeatherDisplay:10.37,2013-11-05 04:57:00,
2013-11-04 21:01:00,57.2,31.1,30.01,SW,222,1.1,2.3,37,0.00,,,0.00,0.0,WeatherDisplay:10.37,2013-11-05 05:01:00,
2013-11-04 21:02:00,57.2,31.1,30.01,SW,222,0.6,2.3,37,0.00,,,0.00,0.0,WeatherDisplay:10.37,2013-11-05 05:02:00,
2013-11-04 21:05:00,57.2,30.5,30.01,SSW,209,0.0,0.0,36,0.00,,,0.00,0.0,WeatherDisplay:10.37,2013-11-05 05:05:00,
2013-11-04 21:11:00,57.3,29.9,30.01,SW,219,0.1,0.0,35,0.00,,,0.00,0.0,WeatherDisplay:10.37,2013-11-05 05:11:00,
2013-11-04 21:12:00,57.3,29.9,30.01,SW,219,0.0,1.2,35,0.00,,,0.00,0.0,WeatherDisplay:10.37,2013-11-05 05:12:00,
2013-11-04 21:17:00,57.8,29.6,30.01,SW,219,0.3,0.0,34,0.00,,,0.00,0.0,WeatherDisplay:10.37,2013-11-05 05:17:00,
2013-11-04 21:22:00,57.8,30.3,30.01,SW,216,1.2,1.2,35,0.00,,,0.00,0.0,WeatherDisplay:10.37,2013-11-05 05:22:00,
2013-11-04 21:23:00,57.8,30.3,30.02,SSW,197,0.2,2.3,35,0.00,,,0.00,0.0,WeatherDisplay:10.37,2013-11-05 05:23:00,
2013-11-04 21:28:00,57.6,30.1,30.02,WNW,301,2.1,4.6,35,0.00,,,0.00,0.0,WeatherDisplay:10.37,2013-11-05 05:28:00,
2013-11-04 21:33:00,57.8,30.3,30.02,SSW,207,0.4,3.5,35,0.00,,,0.00,0.0,WeatherDisplay:10.37,2013-11-05 05:33:00,
2013-11-04 21:38:00,57.5,30.0,30.02,SSW,213,0.7,2.3,35,0.00,,,0.00,0.0,WeatherDisplay:10.37,2013-11-05 05:38:00,
2013-11-04 21:43:00,57.0,29.6,30.02,SSW,213,0.0,2.3,35,0.00,,,0.00,0.0,WeatherDisplay:10.37,2013-11-05 05:43:00,
2013-11-04 21:48:00,56.4,31.7,30.02,SW,226,0.0,1.2,39,0.00,,,0.00,0.0,WeatherDisplay:10.37,2013-11-05 05:48:00,
2013-11-04 21:53:00,56.1,30.8,30.02,South,186,0.1,1.2,38,0.00,,,0.00,0.0,WeatherDisplay:10.37,2013-11-05 05:53:00,
2013-11-04 21:58:00,56.6,29.9,30.02,SW,222,0.6,2.3,36,0.00,,,0.00,0.0,WeatherDisplay:10.37,2013-11-05 05:58:00,
2013-11-04 22:10:00,57.8,31.0,30.02,SSW,202,0.9,1.2,36,0.00,CLR,,0.00,0.0,WeatherDisplay:10.37,2013-11-05 06:10:00,
2013-11-04 22:15:00,57.5,29.3,30.02,SSE,163,0.3,1.2,34,0.00,CLR,,0.00,0.0,WeatherDisplay:10.37,2013-11-05 06:15:00,
2013-11-04 22:20:00,57.9,28.9,30.02,SSE,156,1.2,3.5,33,0.00,CLR,,0.00,0.0,WeatherDisplay:10.37,2013-11-05 06:20:00,
2013-11-04 22:25:00,57.9,29.7,30.02,SSW,213,1.3,3.5,34,0.00,CLR,,0.00,0.0,WeatherDisplay:10.37,2013-11-05 06:25:00,
2013-11-04 22:30:00,57.6,29.4,30.02,SSW,208,0.3,1.2,34,0.00,CLR,,0.00,0.0,WeatherDisplay:10.37,2013-11-05 06:30:00,
2013-11-04 22:35:00,57.0,29.6,30.02,SSW,205,0.0,1.2,35,0.00,CLR,,0.00,0.0,WeatherDisplay:10.37,2013-11-05 06:35:00,
2013-11-04 22:40:00,56.3,30.3,30.02,SW,227,1.3,3.5,37,0.00,CLR,,0.00,0.0,WeatherDisplay:10.37,2013-11-05 06:40:00,
2013-11-04 22:45:00,55.3,30.1,30.02,SSW,193,0.5,2.3,38,0.00,CLR,,0.00,0.0,WeatherDisplay:10.37,2013-11-05 06:45:00,
2013-11-04 22:50:00,55.5,30.3,30.03,SW,219,0.5,2.3,38,0.00,CLR,,0.00,0.0,WeatherDisplay:10.37,2013-11-05 06:50:00,
2013-11-04 22:55:00,55.0,32.3,30.03,SW,219,0.2,0.0,42,0.00,CLR,,0.00,0.0,WeatherDisplay:10.37,2013-11-05 06:55:00,
2013-11-04 23:00:00,54.3,31.7,30.03,SW,221,0.3,1.2,42,0.00,CLR,,0.00,0.0,WeatherDisplay:10.37,2013-11-05 07:00:00,
2013-11-04 23:05:00,54.3,31.7,30.03,SW,221,0.0,0.0,42,0.00,CLR,,0.00,0.0,WeatherDisplay:10.37,2013-11-05 07:05:00,
2013-11-04 23:10:00,53.3,31.9,30.03,SW,228,1.0,3.5,44,0.00,CLR,,0.00,0.0,WeatherDisplay:10.37,2013-11-05 07:10:00,
2013-11-04 23:15:00,53.1,31.2,30.03,SW,227,0.1,0.0,43,0.00,CLR,,0.00,0.0,WeatherDisplay:10.37,2013-11-05 07:15:00,
2013-11-04 23:20:00,53.0,31.1,30.03,SW,216,0.0,1.2,43,0.00,CLR,,0.00,0.0,WeatherDisplay:10.37,2013-11-05 07:20:00,
2013-11-04 23:25:00,53.1,31.2,30.03,SW,216,0.0,0.0,43,0.00,CLR,,0.00,0.0,WeatherDisplay:10.37,2013-11-05 07:25:00,
2013-11-04 23:30:00,53.0,31.6,30.03,SSW,212,0.2,1.2,44,0.00,CLR,,0.00,0.0,WeatherDisplay:10.37,2013-11-05 07:30:00,
2013-11-04 23:35:00,53.1,31.7,30.03,SSW,202,0.3,1.2,44,0.00,CLR,,0.00,0.0,WeatherDisplay:10.37,2013-11-05 07:35:00,
2013-11-04 23:40:00,52.8,32.0,30.04,SSW,202,0.5,1.2,45,0.00,CLR,,0.00,0.0,WeatherDisplay:10.37,2013-11-05 07:40:00,
2013-11-04 23:45:00,52.4,32.2,30.04,SSW,202,0.0,1.2,46,0.00,CLR,,0.00,0.0,WeatherDisplay:10.37,2013-11-05 07:45:00,
2013-11-04 23:50:00,51.8,32.2,30.05,SSW,202,0.5,3.5,47,0.00,CLR,,0.00,0.0,WeatherDisplay:10.37,2013-11-05 07:50:00,
2013-11-04 23:55:00,51.5,31.4,30.05,SSW,197,0.1,1.2,46,0.00,CLR,,0.00,0.0,WeatherDisplay:10.37,2013-11-05 07:55:00,